Time,TemperatureF,DewpointF,PressureIn,WindDirection,WindDirectionDegrees,WindSpeedMPH,WindSpeedGustMPH,Humidity,HourlyPrecipIn,Conditions,Clouds,dailyrainin,SoftwareType,DateUTC
2013-02-06 00:00:00,43.6,33.0,30.03,SE,135,0.0,1.0,66,0.00,,,0.00,VWS V14.01,2013-02-06 06:00:00,
2013-02-06 00:05:00,43.2,33.0,30.03,SE,142,0.0,1.0,67,0.00,,,0.00,VWS V14.01,2013-02-06 06:05:00,
2013-02-06 00:10:00,42.9,33.4,30.03,ESE,114,0.0,2.0,69,0.00,,,0.00,VWS V14.01,2013-02-06 06:10:00,
2013-02-06 00:15:00,42.7,33.2,30.03,ESE,114,0.0,2.0,69,0.00,,,0.00,VWS V14.01,2013-02-06 06:15:00,
2013-02-06 00:20:00,42.4,33.3,30.03,ESE,114,0.0,2.0,70,0.00,,,0.00,VWS V14.01,2013-02-06 06:20:00,
2013-02-06 00:25:00,42.0,33.3,30.03,ESE,114,0.0,2.0,71,0.00,,,0.00,VWS V14.01,2013-02-06 06:25:00,
2013-02-06 00:30:00,41.7,33.0,30.03,ESE,115,0.0,2.0,71,0.00,,,0.00,VWS V14.01,2013-02-06 06:30:00,
2013-02-06 00:35:00,41.6,33.3,30.03,ESE,115,0.0,2.0,72,0.00,,,0.00,VWS V14.01,2013-02-06 06:35:00,
2013-02-06 00:40:00,41.6,33.3,30.03,ESE,115,0.0,2.0,72,0.00,,,0.00,VWS V14.01,2013-02-06 06:40:00,
2013-02-06 00:45:00,41.6,33.3,30.03,ESE,114,0.0,2.0,72,0.00,,,0.00,VWS V14.01,2013-02-06 06:45:00,
2013-02-06 00:50:00,41.5,33.2,30.03,ESE,114,0.0,2.0,72,0.00,,,0.00,VWS V14.01,2013-02-06 06:50:00,
2013-02-06 00:55:00,41.3,33.0,30.03,ESE,114,0.0,2.0,72,0.00,,,0.00,VWS V14.01,2013-02-06 06:55:00,
2013-02-06 01:00:00,41.1,33.1,30.04,ESE,115,0.0,2.0,73,0.00,,,0.00,VWS V14.01,2013-02-06 07:00:00,
2013-02-06 01:05:00,40.8,32.8,30.04,ESE,115,0.0,2.0,73,0.00,,,0.00,VWS V14.01,2013-02-06 07:05:00,
2013-02-06 01:10:00,40.8,33.2,30.04,ESE,115,0.0,2.0,74,0.00,,,0.00,VWS V14.01,2013-02-06 07:10:00,
2013-02-06 01:15:00,41.0,33.0,30.04,ESE,117,0.0,2.0,73,0.00,,,0.00,VWS V14.01,2013-02-06 07:15:00,
2013-02-06 01:20:00,41.3,33.0,30.04,ENE,70,0.0,2.0,72,0.00,,,0.00,VWS V14.01,2013-02-06 07:20:00,
2013-02-06 01:25:00,41.1,32.8,30.04,ENE,69,0.0,2.0,72,0.00,,,0.00,VWS V14.01,2013-02-06 07:25:00,
2013-02-06 01:30:00,41.0,33.0,30.04,ENE,75,0.0,2.0,73,0.00,,,0.00,VWS V14.01,2013-02-06 07:30:00,
2013-02-06 01:35:00,41.2,32.9,30.04,East,97,0.0,2.0,72,0.00,,,0.00,VWS V14.01,2013-02-06 07:35:00,
2013-02-06 01:40:00,41.3,33.0,30.04,East,97,0.0,2.0,72,0.00,,,0.00,VWS V14.01,2013-02-06 07:40:00,
2013-02-06 01:45:00,42.0,33.3,30.04,East,83,0.0,2.0,71,0.00,,,0.00,VWS V14.01,2013-02-06 07:45:00,
2013-02-06 01:50:00,42.7,33.6,30.03,ENE,73,0.0,2.0,70,0.00,,,0.00,VWS V14.01,2013-02-06 07:50:00,
2013-02-06 01:55:00,43.4,33.6,30.03,East,82,1.5,3.0,68,0.00,,,0.00,VWS V14.01,2013-02-06 07:55:00,
2013-02-06 02:00:00,43.9,33.7,30.03,ENE,70,1.5,3.0,67,0.00,,,0.00,VWS V14.01,2013-02-06 08:00:00,
2013-02-06 02:05:00,44.5,33.9,30.03,ESE,114,0.0,3.0,66,0.00,,,0.00,VWS V14.01,2013-02-06 08:05:00,
2013-02-06 02:10:00,44.3,33.3,30.03,ESE,106,0.0,3.0,65,0.00,,,0.00,VWS V14.01,2013-02-06 08:10:00,
2013-02-06 02:15:00,44.0,33.4,30.03,East,83,0.0,3.0,66,0.00,,,0.00,VWS V14.01,2013-02-06 08:15:00,
2013-02-06 02:20:00,44.3,33.3,30.03,ENE,73,1.5,3.0,65,0.00,,,0.00,VWS V14.01,2013-02-06 08:20:00,
2013-02-06 02:25:00,44.5,33.1,30.03,ESE,107,4.5,4.5,64,0.00,,,0.00,VWS V14.01,2013-02-06 08:25:00,
2013-02-06 02:30:00,45.0,33.2,30.03,East,84,1.5,4.0,63,0.00,,,0.00,VWS V14.01,2013-02-06 08:30:00,
2013-02-06 02:35:00,44.8,33.0,30.03,SE,142,1.5,4.0,63,0.00,,,0.00,VWS V14.01,2013-02-06 08:35:00,
2013-02-06 02:40:00,44.4,33.0,30.03,East,97,0.0,4.0,64,0.00,,,0.00,VWS V14.01,2013-02-06 08:40:00,
2013-02-06 02:45:00,44.1,33.1,30.03,SE,132,0.0,4.0,65,0.00,,,0.00,VWS V14.01,2013-02-06 08:45:00,
2013-02-06 02:50:00,43.7,33.1,30.03,ESE,118,1.5,4.0,66,0.00,,,0.00,VWS V14.01,2013-02-06 08:50:00,
2013-02-06 02:55:00,43.3,33.1,30.03,East,83,0.0,4.0,67,0.00,,,0.00,VWS V14.01,2013-02-06 08:55:00,
2013-02-06 03:00:00,42.9,33.1,30.03,NE,37,0.0,4.0,68,0.00,,,0.00,VWS V14.01,2013-02-06 09:00:00,
2013-02-06 03:05:00,42.7,33.2,30.03,ESE,117,3.0,4.0,69,0.00,,,0.00,VWS V14.01,2013-02-06 09:05:00,
2013-02-06 03:10:00,42.6,33.2,30.03,East,90,1.5,4.0,69,0.00,,,0.00,VWS V14.01,2013-02-06 09:10:00,
2013-02-06 03:15:00,42.4,33.0,30.03,ENE,70,1.5,4.0,69,0.00,,,0.00,VWS V14.01,2013-02-06 09:15:00,
2013-02-06 03:20:00,42.3,33.2,30.02,East,84,1.5,4.0,70,0.00,,,0.00,VWS V14.01,2013-02-06 09:20:00,
2013-02-06 03:25:00,42.2,33.1,30.02,East,96,0.0,4.0,70,0.00,,,0.00,VWS V14.01,2013-02-06 09:25:00,
2013-02-06 03:30:00,42.1,33.0,30.02,ENE,65,0.0,4.0,70,0.00,,,0.00,VWS V14.01,2013-02-06 09:30:00,
2013-02-06 03:35:00,42.1,33.0,30.02,ENE,70,1.5,4.0,70,0.00,,,0.00,VWS V14.01,2013-02-06 09:35:00,
2013-02-06 03:40:00,42.3,33.2,30.02,NNE,33,1.5,4.0,70,0.00,,,0.00,VWS V14.01,2013-02-06 09:40:00,
2013-02-06 03:45:00,42.4,33.0,30.02,ENE,74,0.0,4.0,69,0.00,,,0.00,VWS V14.01,2013-02-06 09:45:00,
2013-02-06 03:50:00,42.4,33.0,30.02,NE,41,3.0,4.0,69,0.00,,,0.00,VWS V14.01,2013-02-06 09:50:00,
2013-02-06 03:55:00,42.9,33.1,30.02,East,92,1.5,5.0,68,0.00,,,0.00,VWS V14.01,2013-02-06 09:55:00,
2013-02-06 04:00:00,43.4,32.8,30.02,ENE,70,1.5,6.0,66,0.00,,,0.00,VWS V14.01,2013-02-06 10:00:00,
2013-02-06 04:05:00,43.6,32.6,30.02,East,96,0.0,4.0,65,0.00,,,0.00,VWS V14.01,2013-02-06 10:05:00,
2013-02-06 04:10:00,44.0,32.6,30.02,ENE,77,1.5,5.0,64,0.00,,,0.00,VWS V14.01,2013-02-06 10:10:00,
2013-02-06 04:15:00,44.2,32.8,30.02,NE,53,1.5,6.0,64,0.00,,,0.00,VWS V14.01,2013-02-06 10:15:00,
2013-02-06 04:20:00,44.1,32.3,30.02,East,92,1.5,6.0,63,0.00,,,0.00,VWS V14.01,2013-02-06 10:20:00,
2013-02-06 04:25:00,44.1,32.3,30.02,East,86,1.5,6.0,63,0.00,,,0.00,VWS V14.01,2013-02-06 10:25:00,
2013-02-06 04:30:00,44.2,32.4,30.02,SSE,148,3.0,6.0,63,0.00,,,0.00,VWS V14.01,2013-02-06 10:30:00,
2013-02-06 04:35:00,44.0,32.2,30.02,East,82,0.0,6.0,63,0.00,,,0.00,VWS V14.01,2013-02-06 10:35:00,
2013-02-06 04:40:00,43.7,32.3,30.02,ESE,107,0.0,6.0,64,0.00,,,0.00,VWS V14.01,2013-02-06 10:40:00,
2013-02-06 04:45:00,43.5,32.2,30.02,ESE,113,0.0,6.0,64,0.00,,,0.00,VWS V14.01,2013-02-06 10:45:00,
2013-02-06 04:50:00,43.2,32.2,30.02,South,172,1.5,6.0,65,0.00,,,0.00,VWS V14.01,2013-02-06 10:50:00,
2013-02-06 04:55:00,42.9,32.3,30.02,East,96,1.5,6.0,66,0.00,,,0.00,VWS V14.01,2013-02-06 10:55:00,
2013-02-06 05:00:00,42.8,32.2,30.02,SE,135,1.5,6.0,66,0.00,,,0.00,VWS V14.01,2013-02-06 11:00:00,
2013-02-06 05:05:00,42.5,32.3,30.02,ESE,110,0.0,6.0,67,0.00,,,0.00,VWS V14.01,2013-02-06 11:05:00,
2013-02-06 05:10:00,42.2,32.0,30.02,ESE,111,0.0,6.0,67,0.00,,,0.00,VWS V14.01,2013-02-06 11:10:00,
2013-02-06 05:15:00,41.9,32.1,30.02,SSW,200,0.0,6.0,68,0.00,,,0.00,VWS V14.01,2013-02-06 11:15:00,
2013-02-06 05:20:00,41.7,31.9,30.03,East,100,0.0,6.0,68,0.00,,,0.00,VWS V14.01,2013-02-06 11:20:00,
2013-02-06 05:25:00,41.5,32.1,30.03,East,91,1.5,6.0,69,0.00,,,0.00,VWS V14.01,2013-02-06 11:25:00,
2013-02-06 05:30:00,41.3,31.9,30.03,East,98,0.0,6.0,69,0.00,,,0.00,VWS V14.01,2013-02-06 11:30:00,
2013-02-06 05:35:00,41.0,32.0,30.03,SE,141,0.0,6.0,70,0.00,,,0.00,VWS V14.01,2013-02-06 11:35:00,
2013-02-06 05:40:00,40.7,32.0,30.03,NE,56,1.5,6.0,71,0.00,,,0.00,VWS V14.01,2013-02-06 11:40:00,
2013-02-06 05:45:00,40.5,31.9,30.03,SE,139,0.0,6.0,71,0.00,,,0.00,VWS V14.01,2013-02-06 11:45:00,
2013-02-06 05:50:00,40.1,31.8,30.04,ESE,103,0.0,6.0,72,0.00,,,0.00,VWS V14.01,2013-02-06 11:50:00,
2013-02-06 05:55:00,39.9,31.6,30.04,ESE,103,0.0,6.0,72,0.00,,,0.00,VWS V14.01,2013-02-06 11:55:00,
2013-02-06 06:00:00,39.6,31.7,30.04,East,82,3.0,6.0,73,0.00,,,0.00,VWS V14.01,2013-02-06 12:00:00,
2013-02-06 06:05:00,39.5,31.9,30.05,East,86,0.0,2.0,74,0.00,,,0.00,VWS V14.01,2013-02-06 12:05:00,
2013-02-06 06:10:00,39.3,31.7,30.05,East,84,1.5,2.0,74,0.00,,,0.00,VWS V14.01,2013-02-06 12:10:00,
2013-02-06 06:15:00,39.1,31.5,30.05,ENE,68,1.5,2.0,74,0.00,,,0.00,VWS V14.01,2013-02-06 12:15:00,
2013-02-06 06:20:00,39.1,31.5,30.05,ENE,68,0.0,2.0,74,0.00,,,0.00,VWS V14.01,2013-02-06 12:20:00,
2013-02-06 06:25:00,38.9,31.7,30.05,ENE,70,0.0,2.0,75,0.00,,,0.00,VWS V14.01,2013-02-06 12:25:00,
2013-02-06 06:30:00,38.7,31.5,30.05,ENE,77,0.0,2.0,75,0.00,,,0.00,VWS V14.01,2013-02-06 12:30:00,
2013-02-06 06:35:00,38.8,31.6,30.05,ENE,77,0.0,2.0,75,0.00,,,0.00,VWS V14.01,2013-02-06 12:35:00,
2013-02-06 06:40:00,38.9,31.7,30.05,East,101,0.0,2.0,75,0.00,,,0.00,VWS V14.01,2013-02-06 12:40:00,
2013-02-06 06:45:00,39.1,31.5,30.06,ENE,77,0.0,2.0,74,0.00,,,0.00,VWS V14.01,2013-02-06 12:45:00,
2013-02-06 06:50:00,38.9,31.3,30.06,ENE,78,0.0,2.0,74,0.00,,,0.00,VWS V14.01,2013-02-06 12:50:00,
2013-02-06 06:55:00,38.7,31.5,30.06,ENE,78,1.5,2.0,75,0.00,,,0.00,VWS V14.01,2013-02-06 12:55:00,
2013-02-06 07:00:00,38.9,31.7,30.06,ENE,73,0.0,2.0,75,0.00,,,0.00,VWS V14.01,2013-02-06 13:00:00,
2013-02-06 07:05:00,39.0,31.4,30.06,ENE,68,0.0,2.0,74,0.00,,,0.00,VWS V14.01,2013-02-06 13:05:00,
2013-02-06 07:10:00,39.1,31.5,30.06,ENE,73,3.0,3.0,74,0.00,,,0.00,VWS V14.01,2013-02-06 13:10:00,
2013-02-06 07:15:00,39.4,31.5,30.06,ENE,65,0.0,4.0,73,0.00,,,0.00,VWS V14.01,2013-02-06 13:15:00,
2013-02-06 07:20:00,39.5,31.6,30.06,ENE,78,1.5,4.0,73,0.00,,,0.00,VWS V14.01,2013-02-06 13:20:00,
2013-02-06 07:25:00,39.4,31.5,30.06,East,92,4.5,4.5,73,0.00,,,0.00,VWS V14.01,2013-02-06 13:25:00,
2013-02-06 07:30:00,39.9,31.6,30.06,East,80,6.0,6.0,72,0.00,,,0.00,VWS V14.01,2013-02-06 13:30:00,
2013-02-06 07:35:00,40.5,31.9,30.06,ENE,66,6.0,6.0,71,0.00,,,0.00,VWS V14.01,2013-02-06 13:35:00,
2013-02-06 07:40:00,41.1,32.1,30.05,SE,134,3.0,7.0,70,0.00,,,0.00,VWS V14.01,2013-02-06 13:40:00,
2013-02-06 07:45:00,41.3,31.9,30.05,ESE,113,4.5,7.0,69,0.00,,,0.00,VWS V14.01,2013-02-06 13:45:00,
2013-02-06 07:50:00,41.5,32.5,30.05,East,82,0.0,7.0,70,0.00,,,0.00,VWS V14.01,2013-02-06 13:50:00,
2013-02-06 07:55:00,41.5,32.1,30.05,ESE,105,1.5,7.0,69,0.00,,,0.00,VWS V14.01,2013-02-06 13:55:00,
2013-02-06 08:00:00,42.0,32.2,30.06,East,94,1.5,7.0,68,0.00,,,0.00,VWS V14.01,2013-02-06 14:00:00,
2013-02-06 08:05:00,42.4,32.6,30.06,East,93,3.0,3.0,68,0.00,,,0.00,VWS V14.01,2013-02-06 14:05:00,
2013-02-06 08:10:00,42.8,32.6,30.06,East,83,0.0,4.0,67,0.00,,,0.00,VWS V14.01,2013-02-06 14:10:00,
2013-02-06 08:14:00,43.2,32.6,30.06,ENE,63,1.5,4.0,66,0.00,,,0.00,VWS V14.01,2013-02-06 14:14:00,
2013-02-06 08:19:00,43.6,32.6,30.06,ENE,61,4.5,5.0,65,0.00,,,0.00,VWS V14.01,2013-02-06 14:19:00,
2013-02-06 08:24:00,44.1,33.1,30.05,ENE,72,3.0,5.0,65,0.00,,,0.00,VWS V14.01,2013-02-06 14:24:00,
2013-02-06 08:29:00,44.7,33.3,30.05,East,79,1.5,5.0,64,0.00,,,0.00,VWS V14.01,2013-02-06 14:29:00,
2013-02-06 08:34:00,45.5,33.2,30.05,ENE,64,1.5,5.0,62,0.00,,,0.00,VWS V14.01,2013-02-06 14:34:00,
2013-02-06 08:39:00,46.0,34.1,30.05,East,89,0.0,5.0,63,0.00,,,0.00,VWS V14.01,2013-02-06 14:39:00,
2013-02-06 08:44:00,46.5,33.8,30.05,SE,134,0.0,5.0,61,0.00,,,0.00,VWS V14.01,2013-02-06 14:44:00,
2013-02-06 08:49:00,46.9,32.9,30.05,SW,222,3.0,5.0,58,0.00,,,0.00,VWS V14.01,2013-02-06 14:49:00,
2013-02-06 08:54:00,47.7,33.2,30.05,SE,129,1.5,5.0,57,0.00,,,0.00,VWS V14.01,2013-02-06 14:54:00,
2013-02-06 08:59:00,48.3,33.3,30.05,East,94,3.0,5.0,56,0.00,,,0.00,VWS V14.01,2013-02-06 14:59:00,
2013-02-06 09:00:00,53.9,34.2,30.05,SE,129,1.5,8.0,47,0.00,,,0.00,VWS V14.01,2013-02-06 15:00:00,
2013-02-06 09:04:00,48.6,33.2,30.06,East,96,1.5,5.0,55,0.00,,,0.00,VWS V14.01,2013-02-06 15:04:00,
2013-02-06 09:09:00,48.8,33.4,30.06,ESE,117,1.5,5.0,55,0.00,,,0.00,VWS V14.01,2013-02-06 15:09:00,
2013-02-06 09:14:00,49.1,34.1,30.06,East,93,3.0,5.0,56,0.00,,,0.00,VWS V14.01,2013-02-06 15:14:00,
2013-02-06 09:19:00,49.6,33.7,30.05,SE,127,3.0,5.0,54,0.00,,,0.00,VWS V14.01,2013-02-06 15:19:00,
2013-02-06 09:24:00,50.2,33.7,30.05,SSE,153,1.5,8.0,53,0.00,,,0.00,VWS V14.01,2013-02-06 15:24:00,
2013-02-06 09:29:00,51.1,34.6,30.05,NE,53,3.0,8.0,53,0.00,,,0.00,VWS V14.01,2013-02-06 15:29:00,
2013-02-06 09:34:00,51.6,34.1,30.05,East,80,3.0,8.0,51,0.00,,,0.00,VWS V14.01,2013-02-06 15:34:00,
2013-02-06 09:39:00,52.1,34.0,30.05,SW,235,1.5,8.0,50,0.00,,,0.00,VWS V14.01,2013-02-06 15:39:00,
2013-02-06 09:44:00,52.5,33.9,30.05,SW,218,1.5,8.0,49,0.00,,,0.00,VWS V14.01,2013-02-06 15:44:00,
2013-02-06 09:49:00,53.3,34.1,30.05,ENE,70,1.5,8.0,48,0.00,,,0.00,VWS V14.01,2013-02-06 15:49:00,
2013-02-06 09:54:00,53.5,34.3,30.05,NW,323,1.5,8.0,48,0.00,,,0.00,VWS V14.01,2013-02-06 15:54:00,
2013-02-06 09:59:00,53.8,34.1,30.05,East,84,3.0,8.0,47,0.00,,,0.00,VWS V14.01,2013-02-06 15:59:00,
2013-02-06 10:00:00,53.9,34.2,30.05,SE,129,1.5,8.0,47,0.00,,,0.00,VWS V14.01,2013-02-06 16:00:00,
2013-02-06 10:04:00,54.3,34.0,30.04,SE,128,1.5,6.0,46,0.00,,,0.00,VWS V14.01,2013-02-06 16:04:00,
2013-02-06 10:09:00,55.0,34.1,30.05,SSE,155,1.5,6.0,45,0.00,,,0.00,VWS V14.01,2013-02-06 16:09:00,
2013-02-06 10:14:00,55.5,34.0,30.05,NE,53,3.0,6.0,44,0.00,,,0.00,VWS V14.01,2013-02-06 16:14:00,
2013-02-06 10:19:00,55.8,34.2,30.05,North,11,3.0,7.0,44,0.00,,,0.00,VWS V14.01,2013-02-06 16:19:00,
2013-02-06 10:24:00,56.2,34.6,30.05,SE,142,9.0,10.0,44,0.00,,,0.00,VWS V14.01,2013-02-06 16:24:00,
2013-02-06 10:29:00,57.0,35.3,30.04,East,91,3.0,10.0,44,0.00,,,0.00,VWS V14.01,2013-02-06 16:29:00,
2013-02-06 10:34:00,57.4,35.1,30.04,ENE,77,3.0,10.0,43,0.00,,,0.00,VWS V14.01,2013-02-06 16:34:00,
2013-02-06 10:39:00,57.5,35.2,30.04,WSW,252,3.0,10.0,43,0.00,,,0.00,VWS V14.01,2013-02-06 16:39:00,
2013-02-06 10:44:00,57.3,35.6,30.04,NE,40,1.5,10.0,44,0.00,,,0.00,VWS V14.01,2013-02-06 16:44:00,
2013-02-06 10:49:00,57.1,35.4,30.04,ENE,67,1.5,10.0,44,0.00,,,0.00,VWS V14.01,2013-02-06 16:49:00,
2013-02-06 10:54:00,57.1,36.0,30.04,SE,139,9.0,10.0,45,0.00,,,0.00,VWS V14.01,2013-02-06 16:54:00,
2013-02-06 10:59:00,57.3,36.7,30.04,East,96,0.0,10.0,46,0.00,,,0.00,VWS V14.01,2013-02-06 16:59:00,
2013-02-06 11:00:00,60.6,38.0,30.01,SSE,160,9.0,11.0,43,0.00,,,0.00,VWS V14.01,2013-02-06 17:00:00,
2013-02-06 11:04:00,57.5,36.3,30.04,SE,129,10.5,10.5,45,0.00,,,0.00,VWS V14.01,2013-02-06 17:04:00,
2013-02-06 11:09:00,58.5,37.2,30.04,SE,133,12.0,12.0,45,0.00,,,0.00,VWS V14.01,2013-02-06 17:09:00,
2013-02-06 11:14:00,59.5,37.6,30.04,SSE,158,6.0,10.0,44,0.00,,,0.00,VWS V14.01,2013-02-06 17:14:00,
2013-02-06 11:19:00,60.0,37.5,30.03,SE,145,9.0,10.0,43,0.00,,,0.00,VWS V14.01,2013-02-06 17:19:00,
2013-02-06 11:24:00,60.4,37.8,30.03,NNW,345,1.5,11.0,43,0.00,,,0.00,VWS V14.01,2013-02-06 17:24:00,
2013-02-06 11:29:00,61.6,38.3,30.03,ENE,72,3.0,11.0,42,0.00,,,0.00,VWS V14.01,2013-02-06 17:29:00,
2013-02-06 11:34:00,62.0,38.0,30.03,SSE,165,16.5,16.5,41,0.00,,,0.00,VWS V14.01,2013-02-06 17:34:00,
2013-02-06 11:39:00,61.6,38.3,30.02,SSE,148,6.0,11.0,42,0.00,,,0.00,VWS V14.01,2013-02-06 17:39:00,
2013-02-06 11:44:00,61.1,37.9,30.02,South,174,1.5,11.0,42,0.00,,,0.00,VWS V14.01,2013-02-06 17:44:00,
2013-02-06 11:49:00,60.8,38.2,30.02,SE,141,4.5,11.0,43,0.00,,,0.00,VWS V14.01,2013-02-06 17:49:00,
2013-02-06 11:54:00,60.6,38.0,30.02,ESE,121,3.0,11.0,43,0.00,,,0.00,VWS V14.01,2013-02-06 17:54:00,
2013-02-06 11:59:00,60.6,38.0,30.01,SSE,158,4.5,11.0,43,0.00,,,0.00,VWS V14.01,2013-02-06 17:59:00,
2013-02-06 12:00:00,60.6,38.0,30.01,SSE,160,9.0,11.0,43,0.00,,,0.00,VWS V14.01,2013-02-06 18:00:00,
2013-02-06 12:04:00,61.2,38.5,30.01,WSW,249,1.5,6.0,43,0.00,,,0.00,VWS V14.01,2013-02-06 18:04:00,
2013-02-06 12:09:00,61.7,38.4,30.00,East,101,3.0,6.0,42,0.00,,,0.00,VWS V14.01,2013-02-06 18:09:00,
2013-02-06 12:14:00,62.0,38.7,30.00,SE,134,1.5,7.0,42,0.00,,,0.00,VWS V14.01,2013-02-06 18:14:00,
2013-02-06 12:19:00,62.6,39.2,30.00,SW,214,10.5,10.5,42,0.00,,,0.00,VWS V14.01,2013-02-06 18:19:00,
2013-02-06 12:24:00,63.1,39.7,29.99,SE,136,3.0,9.0,42,0.00,,,0.00,VWS V14.01,2013-02-06 18:24:00,
2013-02-06 12:29:00,63.2,39.1,29.99,South,174,10.5,10.5,41,0.00,,,0.00,VWS V14.01,2013-02-06 18:29:00,
2013-02-06 12:34:00,63.3,39.8,29.99,SW,225,0.0,10.0,42,0.00,,,0.00,VWS V14.01,2013-02-06 18:34:00,
2013-02-06 12:39:00,63.6,40.1,29.98,South,177,3.0,10.0,42,0.00,,,0.00,VWS V14.01,2013-02-06 18:39:00,
2013-02-06 12:44:00,64.1,39.9,29.98,SSE,160,10.5,10.5,41,0.00,,,0.00,VWS V14.01,2013-02-06 18:44:00,
2013-02-06 12:49:00,63.8,39.7,29.98,South,172,6.0,12.0,41,0.00,,,0.00,VWS V14.01,2013-02-06 18:49:00,
2013-02-06 12:54:00,63.9,40.4,29.97,NE,49,1.5,12.0,42,0.00,,,0.00,VWS V14.01,2013-02-06 18:54:00,
2013-02-06 12:59:00,64.3,40.7,29.97,SW,217,1.5,12.0,42,0.00,,,0.00,VWS V14.01,2013-02-06 18:59:00,
2013-02-06 13:00:00,66.2,39.9,29.94,SSE,168,10.5,12.0,38,0.00,,,0.00,VWS V14.01,2013-02-06 19:00:00,
2013-02-06 13:04:00,64.4,39.6,29.97,SSW,212,4.5,12.0,40,0.00,,,0.00,VWS V14.01,2013-02-06 19:04:00,
2013-02-06 13:09:00,64.5,40.3,29.96,SSE,160,1.5,12.0,41,0.00,,,0.00,VWS V14.01,2013-02-06 19:09:00,
2013-02-06 13:14:00,64.5,40.3,29.96,South,180,13.5,13.5,41,0.00,,,0.00,VWS V14.01,2013-02-06 19:14:00,
2013-02-06 13:19:00,64.5,40.3,29.96,SE,129,3.0,12.0,41,0.00,,,0.00,VWS V14.01,2013-02-06 19:19:00,
2013-02-06 13:24:00,64.5,40.3,29.95,East,100,12.0,12.0,41,0.00,,,0.00,VWS V14.01,2013-02-06 19:24:00,
2013-02-06 13:29:00,64.4,39.6,29.95,SSW,198,4.5,12.0,40,0.00,,,0.00,VWS V14.01,2013-02-06 19:29:00,
2013-02-06 13:34:00,64.6,39.8,29.95,South,178,10.5,12.0,40,0.00,,,0.00,VWS V14.01,2013-02-06 19:34:00,
2013-02-06 13:39:00,65.0,39.5,29.95,SSE,153,9.0,12.0,39,0.00,,,0.00,VWS V14.01,2013-02-06 19:39:00,
2013-02-06 13:44:00,65.1,39.5,29.95,SSE,163,3.0,12.0,39,0.00,,,0.00,VWS V14.01,2013-02-06 19:44:00,
2013-02-06 13:49:00,65.2,39.0,29.94,SW,217,10.5,12.0,38,0.00,,,0.00,VWS V14.01,2013-02-06 19:49:00,
2013-02-06 13:54:00,65.4,39.8,29.94,SSE,160,10.5,12.0,39,0.00,,,0.00,VWS V14.01,2013-02-06 19:54:00,
2013-02-06 13:59:00,66.0,39.7,29.94,SSE,163,9.0,12.0,38,0.00,,,0.00,VWS V14.01,2013-02-06 19:59:00,
2013-02-06 14:00:00,66.2,39.9,29.94,SSE,168,10.5,12.0,38,0.00,,,0.00,VWS V14.01,2013-02-06 20:00:00,
2013-02-06 14:04:00,66.8,39.0,29.94,SSE,166,10.5,11.0,36,0.00,,,0.00,VWS V14.01,2013-02-06 20:04:00,
2013-02-06 14:09:00,67.2,40.1,29.93,East,79,3.0,11.0,37,0.00,,,0.00,VWS V14.01,2013-02-06 20:09:00,
2013-02-06 14:14:00,66.9,39.1,29.93,SSE,160,7.5,13.0,36,0.00,,,0.00,VWS V14.01,2013-02-06 20:14:00,
2013-02-06 14:19:00,65.8,38.8,29.93,SSW,194,13.5,14.0,37,0.00,,,0.00,VWS V14.01,2013-02-06 20:19:00,
2013-02-06 14:24:00,65.0,38.8,29.93,SE,135,6.0,14.0,38,0.00,,,0.00,VWS V14.01,2013-02-06 20:24:00,
2013-02-06 14:29:00,64.7,39.2,29.93,East,93,9.0,14.0,39,0.00,,,0.00,VWS V14.01,2013-02-06 20:29:00,
2013-02-06 14:34:00,64.3,39.5,29.93,South,174,6.0,14.0,40,0.00,,,0.00,VWS V14.01,2013-02-06 20:34:00,
2013-02-06 14:39:00,64.7,39.8,29.93,SSE,163,7.5,14.0,40,0.00,,,0.00,VWS V14.01,2013-02-06 20:39:00,
2013-02-06 14:44:00,65.3,39.7,29.93,SSE,162,7.5,14.0,39,0.00,,,0.00,VWS V14.01,2013-02-06 20:44:00,
2013-02-06 14:49:00,65.5,39.2,29.93,South,173,10.5,16.0,38,0.00,,,0.00,VWS V14.01,2013-02-06 20:49:00,
2013-02-06 14:54:00,65.5,39.2,29.93,SSE,153,9.0,16.0,38,0.00,,,0.00,VWS V14.01,2013-02-06 20:54:00,
2013-02-06 14:59:00,65.3,38.4,29.93,SE,146,18.0,18.0,37,0.00,,,0.00,VWS V14.01,2013-02-06 20:59:00,
2013-02-06 15:00:00,62.8,37.5,29.92,SSE,163,10.5,19.0,39,0.00,,,0.00,VWS V14.01,2013-02-06 21:00:00,
2013-02-06 15:04:00,64.9,38.0,29.93,SSE,155,6.0,16.0,37,0.00,,,0.00,VWS V14.01,2013-02-06 21:04:00,
2013-02-06 15:09:00,65.1,38.2,29.93,ESE,105,13.5,16.0,37,0.00,,,0.00,VWS V14.01,2013-02-06 21:09:00,
2013-02-06 15:14:00,64.8,38.6,29.92,SE,131,9.0,16.0,38,0.00,,,0.00,VWS V14.01,2013-02-06 21:14:00,
2013-02-06 15:19:00,64.5,39.0,29.93,SSW,210,7.5,16.0,39,0.00,,,0.00,VWS V14.01,2013-02-06 21:19:00,
2013-02-06 15:24:00,63.8,39.0,29.93,East,99,9.0,16.0,40,0.00,,,0.00,VWS V14.01,2013-02-06 21:24:00,
2013-02-06 15:29:00,63.4,37.4,29.93,SSE,160,16.5,16.5,38,0.00,,,0.00,VWS V14.01,2013-02-06 21:29:00,
2013-02-06 15:34:00,63.3,38.0,29.92,South,170,9.0,19.0,39,0.00,,,0.00,VWS V14.01,2013-02-06 21:34:00,
2013-02-06 15:39:00,63.4,37.4,29.92,SW,219,4.5,19.0,38,0.00,,,0.00,VWS V14.01,2013-02-06 21:39:00,
2013-02-06 15:44:00,63.2,37.2,29.92,South,179,7.5,19.0,38,0.00,,,0.00,VWS V14.01,2013-02-06 21:44:00,
2013-02-06 15:49:00,63.0,37.7,29.92,SSE,163,6.0,19.0,39,0.00,,,0.00,VWS V14.01,2013-02-06 21:49:00,
2013-02-06 15:54:00,62.6,37.3,29.92,SE,139,4.5,19.0,39,0.00,,,0.00,VWS V14.01,2013-02-06 21:54:00,
2013-02-06 15:59:00,62.8,37.5,29.92,South,173,21.0,21.0,39,0.00,,,0.00,VWS V14.01,2013-02-06 21:59:00,
2013-02-06 16:00:00,62.8,37.5,29.92,SSE,163,10.5,19.0,39,0.00,,,0.00,VWS V14.01,2013-02-06 22:00:00,
2013-02-06 16:04:00,62.9,36.9,29.92,ESE,120,6.0,11.0,38,0.00,,,0.00,VWS V14.01,2013-02-06 22:04:00,
2013-02-06 16:09:00,62.8,38.1,29.92,SSE,160,15.0,15.0,40,0.00,,,0.00,VWS V14.01,2013-02-06 22:09:00,
2013-02-06 16:14:00,62.6,38.0,29.92,SSE,152,7.5,12.0,40,0.00,,,0.00,VWS V14.01,2013-02-06 22:14:00,
2013-02-06 16:19:00,62.4,37.8,29.92,SSE,147,6.0,12.0,40,0.00,,,0.00,VWS V14.01,2013-02-06 22:19:00,
2013-02-06 16:24:00,62.2,37.0,29.92,South,179,6.0,13.0,39,0.00,,,0.00,VWS V14.01,2013-02-06 22:24:00,
2013-02-06 16:29:00,61.8,36.0,29.91,SSE,166,6.0,13.0,38,0.00,,,0.00,VWS V14.01,2013-02-06 22:29:00,
2013-02-06 16:34:00,61.6,35.8,29.92,South,187,6.0,13.0,38,0.00,,,0.00,VWS V14.01,2013-02-06 22:34:00,
2013-02-06 16:39:00,61.3,34.1,29.91,SSE,159,4.5,13.0,36,0.00,,,0.00,VWS V14.01,2013-02-06 22:39:00,
2013-02-06 16:44:00,61.1,34.7,29.91,South,174,12.0,13.0,37,0.00,,,0.00,VWS V14.01,2013-02-06 22:44:00,
2013-02-06 16:49:00,61.1,34.7,29.91,SSE,167,10.5,13.0,37,0.00,,,0.00,VWS V14.01,2013-02-06 22:49:00,
2013-02-06 16:54:00,61.0,34.6,29.92,South,181,7.5,13.0,37,0.00,,,0.00,VWS V14.01,2013-02-06 22:54:00,
2013-02-06 16:59:00,60.7,34.3,29.91,South,176,3.0,13.0,37,0.00,,,0.00,VWS V14.01,2013-02-06 22:59:00,
2013-02-06 17:00:00,57.8,38.3,29.93,SE,128,4.5,13.0,48,0.00,,,0.00,VWS V14.01,2013-02-06 23:00:00,
2013-02-06 17:04:00,60.5,34.8,29.91,SE,143,10.5,13.0,38,0.00,,,0.00,VWS V14.01,2013-02-06 23:04:00,
2013-02-06 17:09:00,60.3,34.6,29.92,SE,126,6.0,13.0,38,0.00,,,0.00,VWS V14.01,2013-02-06 23:09:00,
2013-02-06 17:14:00,60.0,34.3,29.92,SSE,153,13.5,13.5,38,0.00,,,0.00,VWS V14.01,2013-02-06 23:14:00,
2013-02-06 17:19:00,59.8,34.8,29.92,ESE,110,7.5,13.0,39,0.00,,,0.00,VWS V14.01,2013-02-06 23:19:00,
2013-02-06 17:24:00,59.5,35.2,29.92,South,173,9.0,13.0,40,0.00,,,0.00,VWS V14.01,2013-02-06 23:24:00,
2013-02-06 17:29:00,59.3,36.8,29.92,ESE,114,1.5,13.0,43,0.00,,,0.00,VWS V14.01,2013-02-06 23:29:00,
2013-02-06 17:34:00,59.0,37.1,29.92,SSE,164,6.0,13.0,44,0.00,,,0.00,VWS V14.01,2013-02-06 23:34:00,
2013-02-06 17:39:00,58.7,37.4,29.92,SSE,149,3.0,13.0,45,0.00,,,0.00,VWS V14.01,2013-02-06 23:39:00,
2013-02-06 17:44:00,58.5,37.8,29.93,ESE,121,10.5,13.0,46,0.00,,,0.00,VWS V14.01,2013-02-06 23:44:00,
2013-02-06 17:49:00,58.3,38.2,29.93,SW,226,4.5,13.0,47,0.00,,,0.00,VWS V14.01,2013-02-06 23:49:00,
2013-02-06 17:54:00,58.0,38.4,29.93,SSE,153,4.5,13.0,48,0.00,,,0.00,VWS V14.01,2013-02-06 23:54:00,
2013-02-06 17:59:00,57.8,38.3,29.93,South,172,3.0,13.0,48,0.00,,,0.00,VWS V14.01,2013-02-06 23:59:00,
2013-02-06 18:00:00,57.8,38.3,29.93,SE,128,4.5,13.0,48,0.00,,,0.00,VWS V14.01,2013-02-07 00:00:00,
2013-02-06 18:04:00,57.7,37.6,29.93,ESE,121,10.5,11.0,47,0.00,,,0.00,VWS V14.01,2013-02-07 00:04:00,
2013-02-06 18:09:00,57.5,37.5,29.93,South,169,7.5,13.0,47,0.00,,,0.00,VWS V14.01,2013-02-07 00:09:00,
2013-02-06 18:14:00,57.2,40.2,29.92,SSW,204,6.0,13.0,53,0.00,,,0.00,VWS V14.01,2013-02-07 00:14:00,
2013-02-06 18:19:00,56.5,39.6,29.92,South,170,6.0,13.0,53,0.00,,,0.00,VWS V14.01,2013-02-07 00:19:00,
2013-02-06 18:24:00,56.2,38.8,29.93,SE,146,1.5,13.0,52,0.00,,,0.00,VWS V14.01,2013-02-07 00:24:00,
2013-02-06 18:29:00,56.0,39.6,29.93,SE,143,4.5,13.0,54,0.00,,,0.00,VWS V14.01,2013-02-07 00:29:00,
2013-02-06 18:34:00,55.7,40.3,29.92,ENE,67,4.5,13.0,56,0.00,,,0.00,VWS V14.01,2013-02-07 00:34:00,
2013-02-06 18:39:00,55.4,40.0,29.92,ENE,63,3.0,13.0,56,0.00,,,0.00,VWS V14.01,2013-02-07 00:39:00,
2013-02-06 18:44:00,55.1,40.2,29.91,SE,126,4.5,13.0,57,0.00,,,0.00,VWS V14.01,2013-02-07 00:44:00,
2013-02-06 18:49:00,54.9,40.0,29.91,SW,219,7.5,13.0,57,0.00,,,0.00,VWS V14.01,2013-02-07 00:49:00,
2013-02-06 18:54:00,54.8,39.9,29.91,ESE,113,6.0,13.0,57,0.00,,,0.00,VWS V14.01,2013-02-07 00:54:00,
2013-02-06 21:00:00,50.0,40.6,29.92,ENE,78,1.5,5.0,70,0.00,,,0.00,VWS V14.01,2013-02-07 03:00:00,
2013-02-06 21:45:00,50.5,40.7,29.92,South,169,1.5,1.5,69,0.00,,,0.00,VWS V14.01,2013-02-07 03:45:00,
2013-02-06 21:50:00,50.5,40.7,29.92,SSE,161,1.5,5.0,69,0.00,,,0.00,VWS V14.01,2013-02-07 03:50:00,
2013-02-06 21:55:00,50.3,40.5,29.92,SSE,149,0.0,5.0,69,0.00,,,0.00,VWS V14.01,2013-02-07 03:55:00,
2013-02-06 22:00:00,50.0,40.6,29.92,East,97,1.5,1.5,70,0.00,,,0.00,VWS V14.01,2013-02-07 04:00:00,
2013-02-06 22:05:00,49.8,40.8,29.92,SE,145,3.0,4.0,71,0.00,,,0.00,VWS V14.01,2013-02-07 04:05:00,
2013-02-06 22:10:00,49.9,41.2,29.92,East,90,1.5,5.0,72,0.00,,,0.00,VWS V14.01,2013-02-07 04:10:00,
2013-02-06 22:15:00,50.0,41.3,29.91,East,98,1.5,5.0,72,0.00,,,0.00,VWS V14.01,2013-02-07 04:15:00,
2013-02-06 22:20:00,49.9,41.6,29.91,SSE,149,3.0,5.0,73,0.00,,,0.00,VWS V14.01,2013-02-07 04:20:00,
2013-02-06 22:25:00,49.8,41.9,29.91,SSE,149,3.0,5.0,74,0.00,,,0.00,VWS V14.01,2013-02-07 04:25:00,
2013-02-06 22:30:00,49.8,41.9,29.91,SSW,197,3.0,6.0,74,0.00,,,0.00,VWS V14.01,2013-02-07 04:30:00,
2013-02-06 22:35:00,49.8,41.9,29.91,SSE,158,1.5,6.0,74,0.00,,,0.00,VWS V14.01,2013-02-07 04:35:00,
2013-02-06 22:40:00,49.7,42.1,29.91,South,176,1.5,6.0,75,0.00,,,0.00,VWS V14.01,2013-02-07 04:40:00,
2013-02-06 22:45:00,49.7,42.1,29.91,SSE,165,4.5,6.0,75,0.00,,,0.00,VWS V14.01,2013-02-07 04:45:00,
2013-02-06 22:50:00,49.7,42.1,29.91,SSE,155,1.5,6.0,75,0.00,,,0.00,VWS V14.01,2013-02-07 04:50:00,
2013-02-06 22:55:00,49.6,42.0,29.91,SSE,161,1.5,7.0,75,0.00,,,0.00,VWS V14.01,2013-02-07 04:55:00,
2013-02-06 23:00:00,49.4,41.8,29.91,SW,219,3.0,7.0,75,0.00,,,0.00,VWS V14.01,2013-02-07 05:00:00,
2013-02-06 23:05:00,49.3,41.7,29.91,SSW,201,0.0,7.0,75,0.00,,,0.00,VWS V14.01,2013-02-07 05:05:00,
2013-02-06 23:10:00,49.3,41.7,29.91,SSW,208,1.5,7.0,75,0.00,,,0.00,VWS V14.01,2013-02-07 05:10:00,
2013-02-06 23:15:00,49.3,41.4,29.91,SSE,164,1.5,7.0,74,0.00,,,0.00,VWS V14.01,2013-02-07 05:15:00,
2013-02-06 23:20:00,49.2,41.3,29.91,SW,217,1.5,7.0,74,0.00,,,0.00,VWS V14.01,2013-02-07 05:20:00,
2013-02-06 23:25:00,49.0,41.4,29.91,ESE,103,0.0,7.0,75,0.00,,,0.00,VWS V14.01,2013-02-07 05:25:00,
2013-02-06 23:30:00,48.9,41.3,29.91,ESE,103,1.5,7.0,75,0.00,,,0.00,VWS V14.01,2013-02-07 05:30:00,
2013-02-06 23:35:00,48.6,41.0,29.91,East,84,0.0,7.0,75,0.00,,,0.00,VWS V14.01,2013-02-07 05:35:00,
2013-02-06 23:40:00,48.5,41.0,29.91,South,170,0.0,7.0,75,0.00,,,0.00,VWS V14.01,2013-02-07 05:40:00,
2013-02-06 23:45:00,48.4,41.2,29.91,ESE,113,6.0,7.0,76,0.00,,,0.00,VWS V14.01,2013-02-07 05:45:00,
2013-02-06 23:50:00,48.4,41.2,29.91,SE,126,0.0,7.0,76,0.00,,,0.00,VWS V14.01,2013-02-07 05:50:00,
2013-02-06 23:55:00,48.3,41.1,29.90,West,260,0.0,7.0,76,0.00,,,0.00,VWS V14.01,2013-02-07 05:55:00,